SV2BZQ-2 Thessalonik GR current weather conditions

sailwx.info

Wind from 345 at 3 knots gusting 7

Air temperature 13.9° C
Dewpoint 3.4° C

Last reported at 2016-Dec-10 15:53 UTC.
Time now 2016-Dec-10 16:42 UTC

Location: N 40°41' E 022°51'.
View on Google Maps.

See reports from other nearby stations

  
Tides and Currents Weather Stations Pressure Air Temp Water Temp Dewpoint Dewpoint Depression Visibility Wind Speed Wind Dir Waves Ship Positions
date/time (UTC)wind fromknots sea level pressurealtimeterstation pressurevisibilityair tempwater tempwave heightnotes
2016-Dec-10 15:53 345 3 gusting 7 13.9
2016-Dec-10 15:49 340 3 gusting 9 13.9
2016-Dec-10 15:43 346 5 gusting 10 13.9
2016-Dec-10 15:39 341 6 gusting 10 14.4
2016-Dec-10 15:35 307 6 gusting 9 14.4
2016-Dec-10 15:29 295 5 gusting 12 14.4
2016-Dec-10 15:24 327 5 gusting 12 14.4
2016-Dec-10 15:18 355 5 gusting 11 14.4
2016-Dec-10 15:14 343 6 gusting 10 14.4
2016-Dec-10 15:08 339 6 gusting 11 15.0
2016-Dec-10 15:04 319 5 gusting 11 15.0
2016-Dec-10 14:58 341 5 gusting 13 15.0
2016-Dec-10 14:54 323 6 gusting 13 15.0
2016-Dec-10 14:48 336 5 gusting 13 15.6
2016-Dec-10 14:44 15.6
2016-Dec-10 14:38 336 6 gusting 11 15.6
2016-Dec-10 14:34 013 6 gusting 14 15.6
2016-Dec-10 14:30 332 6 gusting 14 15.6
2016-Dec-10 14:23 334 6 gusting 14 16.1
2016-Dec-10 14:19 009 6 gusting 15 16.1
2016-Dec-10 14:13 318 6 gusting 15 16.1
2016-Dec-10 14:09 355 6 gusting 12 16.7
2016-Dec-10 14:03 350 6 gusting 12 16.7
2016-Dec-10 13:59 355 6 gusting 12 16.7
2016-Dec-10 13:55 022 6 gusting 16 16.7
2016-Dec-10 13:48 017 6 gusting 16 16.7
2016-Dec-10 13:44 350 7 gusting 14 16.7
2016-Dec-10 13:38 350 8 gusting 18 16.7
2016-Dec-10 13:34 325 8 gusting 19 16.7
2016-Dec-10 13:28 330 6 gusting 19 17.2
2016-Dec-10 13:24 026 7 gusting 19 17.2
2016-Dec-10 13:19 327 5 gusting 19 16.7
2016-Dec-10 13:14 029 9 gusting 16 17.2
2016-Dec-10 13:10 282 10 gusting 19 17.2
2016-Dec-10 13:04 278 11 gusting 19 16.7
2016-Dec-10 13:00 319 8 gusting 17 17.2
2016-Dec-10 12:53 324 9 gusting 17 17.2
2016-Dec-10 12:49 005 10 gusting 19 17.2
2016-Dec-10 12:43 327 9 gusting 19 17.2
2016-Dec-10 12:39 350 9 gusting 19 17.2
2016-Dec-10 12:34 333 12 gusting 19 17.2
2016-Dec-10 12:29 320 8 gusting 16 17.2
2016-Dec-10 12:23 350 9 gusting 16 17.2
2016-Dec-10 12:19 313 11 gusting 20 17.2
2016-Dec-10 12:13 322 12 gusting 20 17.2
2016-Dec-10 12:09 311 11 gusting 19 17.2
2016-Dec-10 12:05 333 12 gusting 20 17.2
2016-Dec-10 11:58 330 13 gusting 21 17.2
2016-Dec-10 11:54 320 11 gusting 21 17.2
2016-Dec-10 11:48 346 9 gusting 18 17.2
2016-Dec-10 11:44 236 9 gusting 19 17.2
2016-Dec-10 11:38 349 8 gusting 19 17.2
2016-Dec-10 11:32 338 8 gusting 16 17.2
2016-Dec-10 11:28 355 8 gusting 16 17.2
2016-Dec-10 11:24 338 8 gusting 18 17.2
2016-Dec-10 11:18 325 7 gusting 18 17.2
2016-Dec-10 11:14 300 7 gusting 14 17.2
2016-Dec-10 11:08 273 8 gusting 18 16.7
2016-Dec-10 11:03 336 9 gusting 21 16.7
2016-Dec-10 10:59 16.7
2016-Dec-10 10:53 340 6 gusting 18 16.7
2016-Dec-10 10:49 336 6 gusting 15 16.7
2016-Dec-10 10:43 340 8 gusting 17 16.7
2016-Dec-10 10:39 044 8 gusting 17 16.7
2016-Dec-10 10:33 332 7 gusting 18 16.1
2016-Dec-10 10:29 355 9 gusting 18 16.1
2016-Dec-10 10:23 309 7 gusting 17 16.1
2016-Dec-10 10:19 355 6 gusting 16 16.1
2016-Dec-10 10:15 16.1
2016-Dec-10 10:08 296 6 gusting 17 16.1
2016-Dec-10 10:04 011 6 gusting 17 16.1
2016-Dec-10 09:59 294 3 gusting 16 15.6
2016-Dec-10 09:54 319 7 gusting 16 15.6
2016-Dec-10 09:48 326 7 gusting 13 15.6
2016-Dec-10 09:44 311 7 gusting 13 15.6
2016-Dec-10 09:38 311 8 gusting 18 15.6
2016-Dec-10 09:34 324 8 gusting 18 15.6
2016-Dec-10 09:28 323 9 gusting 15 15.0
2016-Dec-10 09:24 331 9 gusting 17 15.0
2016-Dec-10 09:18 314 8 gusting 17 15.0
2016-Dec-10 09:14 348 9 gusting 16 15.0
2016-Dec-10 09:10 330 9 gusting 17 15.0
2016-Dec-10 09:04 322 7 gusting 17 14.4
2016-Dec-10 08:59 336 7 gusting 15 14.4
2016-Dec-10 08:53 331 8 gusting 14 13.9
2016-Dec-10 08:49 315 7 gusting 14 13.3
2016-Dec-10 08:43 333 6 gusting 12 12.8
2016-Dec-10 08:39 010 5 gusting 12 12.2
2016-Dec-10 08:33 333 0 gusting 6 11.7
2016-Dec-10 08:29 238 0 gusting 3 11.7
2016-Dec-10 08:23 260 0 gusting 3 11.7
2016-Dec-10 08:18 259 1 gusting 6 11.1
2016-Dec-10 08:15 248 2 gusting 6 11.1
2016-Dec-10 08:08 221 0 gusting 4 11.1
2016-Dec-10 08:04 209 10.6
2016-Dec-10 07:58 209 10.0
2016-Dec-10 07:54 209 10.0
2016-Dec-10 07:48 209 9.4
2016-Dec-10 07:44 209 9.4
2016-Dec-10 07:38 209 8.9
2016-Dec-10 07:34 209 8.3
2016-Dec-10 07:28 283 7.8
2016-Dec-10 07:24 287 7.8
2016-Dec-10 07:20 287 7.2
2016-Dec-10 07:14 287 6.7
2016-Dec-10 07:10 287 6.7
2016-Dec-10 07:03 287 6.1
2016-Dec-10 06:59 287 6.1
2016-Dec-10 06:53 287 6.1
2016-Dec-10 06:49 287 5.6
2016-Dec-10 06:43 287 5.6
2016-Dec-10 06:39 287 5.6
2016-Dec-10 06:33 288 5.6
2016-Dec-10 06:29 288 5.6
2016-Dec-10 06:25 287 0 gusting 2 6.1
2016-Dec-10 06:18 288 6.7
2016-Dec-10 06:14 288 6.7
2016-Dec-10 06:08 288 6.7
2016-Dec-10 06:04 289 6.7
2016-Dec-10 05:59 288 6.7
2016-Dec-10 05:54 288 7.2
2016-Dec-10 05:48 288 7.2
2016-Dec-10 05:44 288 7.2
2016-Dec-10 05:39 288 7.2
2016-Dec-10 05:33 289 7.2
2016-Dec-10 05:29 288 7.2
2016-Dec-10 05:23 288 7.2
2016-Dec-10 05:19 288 7.2
2016-Dec-10 05:13 287 7.2
2016-Dec-10 05:09 287 7.2
2016-Dec-10 05:03 306 7.2
2016-Dec-10 04:59 308 0 gusting 3 7.2
2016-Dec-10 04:55 310 0 gusting 5 7.2
2016-Dec-10 04:48 316 1 gusting 6 7.2
2016-Dec-10 04:44 292 1 gusting 6 6.7
2016-Dec-10 04:38 306 2 gusting 7 6.7
2016-Dec-10 04:34 287 5 gusting 8 6.7
2016-Dec-10 04:30 288 5 gusting 8 6.7
2016-Dec-10 04:24 288 3 gusting 8 6.1
2016-Dec-10 04:19 311 2 gusting 7 5.6
2016-Dec-10 04:13 288 1 gusting 6 5.0
2016-Dec-10 04:09 292 2 gusting 6 4.4
2016-Dec-10 04:04 281 1 gusting 6 3.9
2016-Dec-10 03:59 304 0 gusting 5 3.9
2016-Dec-10 03:53 253 3.9
2016-Dec-10 03:49 250 3.9
2016-Dec-10 03:43 250 3.3
2016-Dec-10 03:39 250 3.3
2016-Dec-10 03:33 250 3.3
2016-Dec-10 03:29 250 3.3
2016-Dec-10 03:25 250 3.3
2016-Dec-10 03:18 250 3.3
2016-Dec-10 03:14 250 3.3
2016-Dec-10 03:08 250 3.3
2016-Dec-10 03:04 250 3.3
2016-Dec-10 03:00 250 3.3
2016-Dec-10 02:54 294 3.3
2016-Dec-10 02:50 295 3.3
2016-Dec-10 02:44 295 3.3
2016-Dec-10 02:39 295 3.3
2016-Dec-10 02:33 296 3.3
2016-Dec-10 02:29 296 3.3
2016-Dec-10 02:23 295 3.3
2016-Dec-10 02:19 295 3.9
2016-Dec-10 02:13 296 3.3
2016-Dec-10 02:09 297 3.9
2016-Dec-10 02:03 297 3.9
2016-Dec-10 01:58 296 3.3
2016-Dec-10 01:54 297 3.3
2016-Dec-10 01:49 296 3.3
2016-Dec-10 01:45 296 3.3
2016-Dec-10 01:38 297 3.3
2016-Dec-10 01:34 297 3.3
2016-Dec-10 01:28 297 3.3
2016-Dec-10 01:24 296 3.3
2016-Dec-10 01:18 297 3.3
2016-Dec-10 01:14 297 3.3
2016-Dec-10 01:08 297 3.3
2016-Dec-10 01:04 297 3.3
2016-Dec-10 00:58 296 3.3
2016-Dec-10 00:54 297 2.8
2016-Dec-10 00:48 296 2.8
2016-Dec-10 00:44 297 2.8
2016-Dec-10 00:38 296 2.8
2016-Dec-10 00:34 297 2.8
2016-Dec-10 00:28 296 3.3
2016-Dec-10 00:24 297 3.3
2016-Dec-10 00:18 296 3.3
2016-Dec-10 00:14 297 3.3
2016-Dec-10 00:08 296 3.3
2016-Dec-10 00:04 297 3.3
2016-Dec-10 00:00 297 2.8
2016-Dec-09 23:54 297 0 gusting 3 2.8
2016-Dec-09 23:50 296 1 gusting 3 2.8
2016-Dec-09 23:44 296 0 gusting 4 2.8
2016-Dec-09 23:39 296 1 gusting 4 3.3
2016-Dec-09 23:33 297 0 gusting 2 3.3
2016-Dec-09 23:29 297 0 gusting 2 3.3
2016-Dec-09 23:23 296 1 gusting 3 3.3
2016-Dec-09 23:19 296 1 gusting 3 3.3
2016-Dec-09 23:13 294 0 gusting 3 2.8
2016-Dec-09 23:09 294 0 gusting 3 3.3
2016-Dec-09 23:03 296 3.3
2016-Dec-09 22:59 298 0 gusting 2 3.3
2016-Dec-09 22:53 298 1 gusting 3 3.3
2016-Dec-09 22:49 298 1 gusting 3 3.3
2016-Dec-09 22:44 298 1 gusting 3 3.3
2016-Dec-09 22:38 298 1 gusting 3 3.3
2016-Dec-09 22:34 295 1 gusting 5 3.3
2016-Dec-09 22:28 298 1 gusting 5 3.3
2016-Dec-09 22:23 299 0 gusting 4 3.3
2016-Dec-09 22:19 294 0 gusting 3 3.3
2016-Dec-09 22:14 288 0 gusting 3 3.3
2016-Dec-09 22:10 286 0 gusting 3 3.9
2016-Dec-09 22:03 291 0 gusting 2 3.9
2016-Dec-09 21:59 290 0 gusting 3 3.9
2016-Dec-09 21:53 291 1 gusting 3 3.9
2016-Dec-09 21:49 290 2 gusting 3 3.9
2016-Dec-09 21:44 298 2 gusting 6 4.4
2016-Dec-09 21:38 283 2 gusting 6 4.4
2016-Dec-09 21:34 296 2 gusting 4 4.4
2016-Dec-09 21:28 300 2 gusting 4 4.4
2016-Dec-09 21:24 302 1 gusting 3 4.4
2016-Dec-09 21:18 300 2 gusting 4 5.0
2016-Dec-09 21:14 299 2 gusting 4 5.0
2016-Dec-09 21:08 298 2 gusting 4 5.0
2016-Dec-09 21:04 304 2 gusting 4 5.0
2016-Dec-09 21:00 303 2 gusting 6 5.0
2016-Dec-09 20:53 300 2 gusting 6 5.0
2016-Dec-09 20:49 302 2 gusting 4 5.0
2016-Dec-09 20:43 300 3 gusting 6 5.0
2016-Dec-09 20:39 298 3 gusting 6 5.0
2016-Dec-09 20:33 300 2 gusting 4 5.0
2016-Dec-09 20:29 304 3 gusting 6 5.0
2016-Dec-09 20:25 302 3 gusting 6 5.0
2016-Dec-09 20:19 301 3 gusting 6 5.0
2016-Dec-09 20:15 298 3 gusting 6 5.0
2016-Dec-09 20:09 299 2 gusting 6 5.0
2016-Dec-09 20:04 298 2 gusting 4 5.0
2016-Dec-09 19:58 304 1 gusting 4 5.0
2016-Dec-09 19:54 303 1 gusting 6 5.0
2016-Dec-09 19:48 304 2 gusting 6 5.0
2016-Dec-09 19:44 296 2 gusting 4 5.0
2016-Dec-09 19:40 306 1 gusting 4 5.0
2016-Dec-09 19:34 304 0 gusting 2 5.6
2016-Dec-09 19:30 294 0 gusting 2 5.6
2016-Dec-09 19:24 294 0 gusting 1 5.6
2016-Dec-09 19:20 294 0 gusting 1 5.6
2016-Dec-09 19:13 294 5.6
2016-Dec-09 19:09 294 5.6
2016-Dec-09 19:03 294 5.6
2016-Dec-09 18:59 294 5.6
2016-Dec-09 18:53 294 5.6
2016-Dec-09 18:49 293 5.6
2016-Dec-09 18:43 294 5.6
2016-Dec-09 18:39 293 0 gusting 3 5.6
2016-Dec-09 18:33 294 0 gusting 3 6.1
2016-Dec-09 18:29 282 0 gusting 1 6.1
2016-Dec-09 18:23 275 6.7
2016-Dec-09 18:19 267 6.7
2016-Dec-09 18:15 267 6.7
2016-Dec-09 18:09 267 7.2
2016-Dec-09 18:05 267 7.2
2016-Dec-09 17:58 264 7.2
2016-Dec-09 17:54 265 7.2
2016-Dec-09 17:49 265 7.8
2016-Dec-09 17:44 264 7.8
2016-Dec-09 17:38 264 7.8
2016-Dec-09 17:34 264 7.8
2016-Dec-09 17:28 265 8.3
2016-Dec-09 17:24 265 8.3
2016-Dec-09 17:18 265 8.3
2016-Dec-09 17:13 264 8.9
2016-Dec-09 17:09 264 8.9
2016-Dec-09 17:03 264 8.9
2016-Dec-09 16:59 264 8.9
2016-Dec-09 16:55 264 8.9
2016-Dec-09 16:49 264 9.4
2016-Dec-09 16:42 263 9.4
2016-Dec-09 16:39 264 9.4
2016-Dec-09 16:34 264 9.4
2016-Dec-09 16:28 264 10.0
2016-Dec-09 16:24 264 10.0
2016-Dec-09 16:18 264 10.0
2016-Dec-09 16:14 263 10.6
2016-Dec-09 16:08 264 10.0
2016-Dec-09 16:04 264 10.6
2016-Dec-09 15:59 264 10.6
2016-Dec-09 15:53 263 11.1
2016-Dec-09 15:49 263 11.1
2016-Dec-09 15:43 264 11.1
2016-Dec-09 15:39 264 11.7
2016-Dec-09 15:33 264 11.7
2016-Dec-09 15:29 264 11.7
2016-Dec-09 15:23 264 11.7
2016-Dec-09 15:19 263 12.2
2016-Dec-09 15:15 264 12.2
2016-Dec-09 15:09 264 12.2
2016-Dec-09 15:04 264 12.2
2016-Dec-09 14:58 264 12.8
2016-Dec-09 14:52 264 12.8
2016-Dec-09 14:48 263 12.8
2016-Dec-09 14:44 263 12.8
2016-Dec-09 14:38 263 0 gusting 1 12.8
2016-Dec-09 14:34 263 0 gusting 1 12.8
2016-Dec-09 14:28 263 0 gusting 2 12.8
2016-Dec-09 14:24 264 12.8
2016-Dec-09 14:20 268 12.8
2016-Dec-09 14:13 268 12.8
2016-Dec-09 14:10 268 13.3
2016-Dec-09 14:03 268 13.3
2016-Dec-09 13:59 268 13.3
2016-Dec-09 13:53 268 13.3
2016-Dec-09 13:49 268 13.3
2016-Dec-09 13:43 268 0 gusting 3 13.3
2016-Dec-09 13:40 268 12.8
2016-Dec-09 13:33 328 13.3
2016-Dec-09 13:29 327 12.8
2016-Dec-09 13:25 328 0 gusting 4 12.8
2016-Dec-09 13:19 323 0 gusting 4 12.8
2016-Dec-09 13:15 326 0 gusting 4 12.8
2016-Dec-09 13:09 329 1 gusting 4 12.8
2016-Dec-09 13:04 327 0 gusting 3 12.8
2016-Dec-09 12:58 346 1 gusting 5 12.8
2016-Dec-09 12:54 346 0 gusting 5 12.8
2016-Dec-09 12:48 306 2 gusting 7 12.8
2016-Dec-09 12:44 319 2 gusting 7 12.2
2016-Dec-09 12:39 334 2 gusting 7 12.2
2016-Dec-09 12:33 348 2 gusting 8 12.2
2016-Dec-09 12:29 311 3 gusting 8 12.2
2016-Dec-09 12:23 340 4 gusting 8 12.2
2016-Dec-09 12:19 313 2 gusting 8 12.2
2016-Dec-09 12:13 311 2 gusting 9 12.2
2016-Dec-09 12:09 277 3 gusting 9 12.2
2016-Dec-09 12:03 336 2 gusting 7 12.2
2016-Dec-09 11:59 334 2 gusting 7 12.2
2016-Dec-09 11:53 315 3 gusting 7 12.2
2016-Dec-09 11:49 309 3 gusting 7 12.2
2016-Dec-09 11:43 321 3 gusting 6 11.7
2016-Dec-09 11:39 311 3 gusting 6 11.7
2016-Dec-09 11:35 299 3 gusting 6 11.7
2016-Dec-09 11:28 288 2 gusting 7 12.2
2016-Dec-09 11:24 277 3 gusting 7 11.7
2016-Dec-09 11:18 317 2 gusting 7 11.7
2016-Dec-09 11:14 315 1 gusting 6 11.7
2016-Dec-09 11:08 296 2 gusting 7 11.7
2016-Dec-09 11:04 339 2 gusting 7 11.7
2016-Dec-09 11:00 342 1 gusting 5 11.1
2016-Dec-09 10:53 325 1 gusting 6 11.1
2016-Dec-09 10:49 302 2 gusting 6 11.1
2016-Dec-09 10:43 330 3 gusting 7 11.1
2016-Dec-09 10:39 297 4 gusting 8 11.1
2016-Dec-09 10:33 327 3 gusting 8 11.1
2016-Dec-09 10:29 300 3 gusting 8 10.6
2016-Dec-09 10:25 321 2 gusting 8 10.6
2016-Dec-09 10:19 314 3 gusting 7 10.6
2016-Dec-09 10:15 288 3 gusting 8 10.6
2016-Dec-09 10:09 319 2 gusting 11 10.0
2016-Dec-09 10:05 355 4 gusting 11 10.0
2016-Dec-09 09:58 300 4 gusting 9 9.4
2016-Dec-09 09:55 318 4 gusting 8 9.4
2016-Dec-09 09:49 313 4 gusting 8 9.4
2016-Dec-09 09:44 324 4 gusting 7 9.4
2016-Dec-09 09:39 313 5 gusting 7 8.9
2016-Dec-09 09:34 306 3 gusting 6 8.9
2016-Dec-09 09:28 005 3 gusting 7 8.9
2016-Dec-09 09:24 303 3 gusting 8 8.3
2016-Dec-09 09:18 323 4 gusting 8 8.3
2016-Dec-09 09:14 333 4 gusting 7 8.3
2016-Dec-09 09:10 325 4 gusting 9 8.3
2016-Dec-09 09:04 348 4 gusting 9 8.3
2016-Dec-09 08:59 309 4 gusting 9 8.3
2016-Dec-09 08:53 325 4 gusting 9 7.8
2016-Dec-09 08:49 315 4 gusting 8 7.8
2016-Dec-09 08:43 303 3 gusting 8 7.8
2016-Dec-09 08:39 342 3 gusting 10 7.2
2016-Dec-09 08:33 331 5 gusting 10 7.2
2016-Dec-09 08:29 344 6 gusting 11 6.7
2016-Dec-09 08:25 337 5 gusting 11 6.7
2016-Dec-09 08:18 311 5 gusting 13 6.1
2016-Dec-09 08:14 023 6 gusting 13 6.1
2016-Dec-09 08:08 326 5 gusting 11 5.6
2016-Dec-09 08:04 338 5 gusting 13 5.6
2016-Dec-09 07:58 307 6 gusting 13 5.6
2016-Dec-09 07:54 309 6 gusting 11 5.6
2016-Dec-09 07:48 313 6 gusting 10 5.6
2016-Dec-09 07:44 317 6 gusting 10 5.0
2016-Dec-09 07:40 348 6 gusting 9 5.0
2016-Dec-09 07:34 293 6 gusting 11 4.4
2016-Dec-09 07:29 326 6 gusting 11 4.4
2016-Dec-09 07:23 315 6 gusting 12 3.9
2016-Dec-09 07:19 306 6 gusting 12 3.3
2016-Dec-09 07:13 318 5 gusting 13 3.3
2016-Dec-09 07:09 337 3 gusting 13 3.3
2016-Dec-09 07:05 315 2 gusting 7 3.3
2016-Dec-09 06:59 281 1 gusting 6 3.3
2016-Dec-09 06:55 288 3 gusting 6 2.8
2016-Dec-09 06:49 281 4 gusting 7 2.8
2016-Dec-09 06:44 267 4 gusting 7 2.8
2016-Dec-09 06:38 273 4 gusting 7 2.8
2016-Dec-09 06:34 277 3 gusting 6 2.2
2016-Dec-09 06:28 279 2 gusting 6 2.2
2016-Dec-09 06:24 302 1 gusting 6 1.7
2016-Dec-09 06:19 341 0 gusting 3 1.7
2016-Dec-09 06:14 341 1 gusting 6 1.7
2016-Dec-09 06:08 303 1 gusting 6 1.7
2016-Dec-09 06:04 325 1 gusting 5 1.7
2016-Dec-09 05:58 319 3 gusting 6 1.7
2016-Dec-09 05:53 319 3 gusting 6 1.7
2016-Dec-09 05:50 299 2 gusting 6 1.7
2016-Dec-09 05:43 286 3 gusting 6 1.7
2016-Dec-09 05:39 300 3 gusting 6 1.7
2016-Dec-09 05:33 313 3 gusting 6 1.7
2016-Dec-09 05:29 308 2 gusting 6 1.7
2016-Dec-09 05:23 304 2 gusting 6 1.1
2016-Dec-09 05:19 295 3 gusting 6 1.1
2016-Dec-09 05:13 296 2 gusting 6 0.6
2016-Dec-09 05:09 319 1 gusting 4 0.6
2016-Dec-09 05:04 313 2 gusting 4 -0.0
2016-Dec-09 04:59 311 0 gusting 3 0.6
2016-Dec-09 04:55 311 2 gusting 4 0.6
2016-Dec-09 04:49 306 2 gusting 7 0.6
2016-Dec-09 04:44 296 3 gusting 7 0.6
2016-Dec-09 04:38 290 3 gusting 6 0.6
2016-Dec-09 04:34 300 2 gusting 6 0.6
2016-Dec-09 04:28 288 2 gusting 5 0.6
2016-Dec-09 04:24 291 2 gusting 6 1.1
2016-Dec-09 04:20 302 3 gusting 6 1.1
2016-Dec-09 04:14 275 1 gusting 6 1.1
2016-Dec-09 04:09 298 0 gusting 2 1.1
2016-Dec-09 04:03 302 0 gusting 2 1.1
2016-Dec-09 03:59 302 0 gusting 2 1.1
2016-Dec-09 03:53 302 0 gusting 3 1.1
2016-Dec-09 03:49 302 2 gusting 4 1.1
2016-Dec-09 03:43 302 2 gusting 4 1.1
2016-Dec-09 03:39 300 1 gusting 4 1.1
2016-Dec-09 03:33 298 0 gusting 3 1.1
2016-Dec-09 03:29 298 0 gusting 3 1.1
2016-Dec-09 03:23 303 1 gusting 3 1.1
2016-Dec-09 03:19 303 1 gusting 3 1.1
2016-Dec-09 03:15 304 2 gusting 4 1.1
2016-Dec-09 03:09 300 2 gusting 4 1.1
2016-Dec-09 03:04 296 2 gusting 4 1.1
2016-Dec-09 02:58 304 0 gusting 4 1.1
2016-Dec-09 02:54 276 0 gusting 3 1.1
2016-Dec-09 02:48 276 0 gusting 3 1.1
2016-Dec-09 02:44 274 1 gusting 3 1.7
2016-Dec-09 02:38 273 2 gusting 5 1.1
2016-Dec-09 02:34 268 2 gusting 5 1.1
2016-Dec-09 02:28 278 1 gusting 5 1.1
2016-Dec-09 02:24 282 0 gusting 5 1.1
2016-Dec-09 02:18 302 0 gusting 3 1.1
2016-Dec-09 02:14 304 0 gusting 3 1.1
2016-Dec-09 02:10 304 1 gusting 4 1.1
2016-Dec-09 02:03 306 0 gusting 4 1.1
2016-Dec-09 01:59 311 1.1
2016-Dec-09 01:53 313 1.1
2016-Dec-09 01:50 314 0.6
2016-Dec-09 01:43 314 1.1
2016-Dec-09 01:39 314 1.1
2016-Dec-09 01:35 314 0.6
2016-Dec-09 01:29 314 1.1
2016-Dec-09 01:25 315 0.6
2016-Dec-09 01:19 316 1.1
2016-Dec-09 01:15 315 1.1
2016-Dec-09 01:08 316 1.1
2016-Dec-09 01:05 315 1.1
2016-Dec-09 00:58 316 0 gusting 2 1.1
2016-Dec-09 00:54 316 1 gusting 4 1.1
2016-Dec-09 00:49 317 2 gusting 4 1.1
2016-Dec-09 00:44 295 1 gusting 4 1.1
2016-Dec-09 00:38 270 0 gusting 3 1.1
2016-Dec-09 00:34 306 1.1
2016-Dec-09 00:30 306 1.7
2016-Dec-09 00:24 306 1.7
2016-Dec-09 00:19 306 0 gusting 2 1.7
2016-Dec-09 00:13 306 0 gusting 2 1.7
2016-Dec-09 00:09 306 1 gusting 4 1.7
2016-Dec-09 00:03 307 1 gusting 4 1.7
2016-Dec-08 23:59 315 1 gusting 3 1.7
2016-Dec-08 23:53 316 0 gusting 3 1.7
2016-Dec-08 23:49 317 1.7
2016-Dec-08 23:43 317 1.7
2016-Dec-08 23:39 317 0 gusting 2 1.7
2016-Dec-08 23:33 317 2.2
2016-Dec-08 23:29 317 2.2
2016-Dec-08 23:23 317 2.2
2016-Dec-08 23:19 317 2.2
2016-Dec-08 23:15 317 2.2
2016-Dec-08 23:08 317 0 gusting 2 2.2
2016-Dec-08 23:04 317 0 gusting 2 2.2
2016-Dec-08 22:58 317 2.2
2016-Dec-08 22:54 317 2.8
2016-Dec-08 22:48 317 2.8
2016-Dec-08 22:44 317 2.8
2016-Dec-08 22:39 317 2.2
2016-Dec-08 22:34 317 2.8
2016-Dec-08 22:30 317 2.8
2016-Dec-08 22:24 317 2.8
2016-Dec-08 22:20 317 0 gusting 3 2.8
2016-Dec-08 22:13 317 1 gusting 3 2.8
2016-Dec-08 22:09 318 0 gusting 3 2.8
2016-Dec-08 22:04 319 0 gusting 2 2.8
2016-Dec-08 22:00 319 2.8
2016-Dec-08 21:53 319 3.3
2016-Dec-08 21:49 319 3.3
2016-Dec-08 21:44 319 3.3
2016-Dec-08 21:38 319 3.3
2016-Dec-08 21:34 319 3.3
2016-Dec-08 21:28 319 3.3
2016-Dec-08 21:24 319 3.3
2016-Dec-08 21:20 319 2.8
2016-Dec-08 21:14 319 3.3
2016-Dec-08 21:08 319 3.3
2016-Dec-08 21:04 319 0 gusting 2 2.8
2016-Dec-08 21:00 319 0 gusting 2 3.3
2016-Dec-08 20:53 319 3.3
2016-Dec-08 20:49 319 3.3
2016-Dec-08 20:43 319 0 gusting 2 3.3
2016-Dec-08 20:39 320 1 gusting 3 3.3
2016-Dec-08 20:34 321 0 gusting 3 2.8
2016-Dec-08 20:29 316 0 gusting 3 3.3
2016-Dec-08 20:23 321 3.3
2016-Dec-08 20:19 321 3.3
2016-Dec-08 20:13 321 0 gusting 3 3.3
2016-Dec-08 20:09 321 1 gusting 3 3.3
2016-Dec-08 20:04 317 0 gusting 4 3.3
2016-Dec-08 19:59 309 1 gusting 3 3.3
2016-Dec-08 19:53 302 0 gusting 3 3.3
2016-Dec-08 19:49 301 0 gusting 3 3.9
2016-Dec-08 19:45 300 0 gusting 3 3.9
2016-Dec-08 19:38 296 0 gusting 4 3.9
2016-Dec-08 19:34 297 0 gusting 4 3.9
2016-Dec-08 19:28 300 0 gusting 4 3.9
2016-Dec-08 19:24 300 1 gusting 4 3.9
2016-Dec-08 19:18 296 0 gusting 3 4.4
2016-Dec-08 19:14 288 4.4
2016-Dec-08 19:08 281 4.4
2016-Dec-08 19:03 282 4.4
2016-Dec-08 18:59 281 4.4
2016-Dec-08 18:53 281 4.4
2016-Dec-08 18:49 281 4.4
2016-Dec-08 18:43 281 4.4
2016-Dec-08 18:39 282 4.4
2016-Dec-08 18:33 281 0 gusting 2 4.4
2016-Dec-08 18:29 282 0 gusting 3 4.4
2016-Dec-08 18:24 281 0 gusting 3 4.4
2016-Dec-08 18:18 229 4.4
2016-Dec-08 18:14 228 4.4
2016-Dec-08 18:08 224 4.4
2016-Dec-08 18:04 223 4.4
2016-Dec-08 17:58 223 5.0
2016-Dec-08 17:54 223 5.0
2016-Dec-08 17:48 222 5.0
2016-Dec-08 17:43 223 5.0
2016-Dec-08 17:39 223 5.0
2016-Dec-08 17:33 222 5.0
2016-Dec-08 17:29 222 5.6
2016-Dec-08 17:23 223 5.6
2016-Dec-08 17:19 222 5.6
2016-Dec-08 17:13 223 5.6
2016-Dec-08 17:09 223 5.6
2016-Dec-08 17:04 223 5.6
2016-Dec-08 16:58 222 6.1
2016-Dec-08 16:54 223 6.1
2016-Dec-08 16:49 223 6.1
2016-Dec-08 16:44 223 6.7
2016-Dec-08 16:38 223 6.7
2016-Dec-08 16:34 223 6.7
2016-Dec-08 16:28 221 7.2
2016-Dec-08 16:25 221 7.2
2016-Dec-08 16:16 221 7.2
2016-Dec-08 16:14 221 7.2
2016-Dec-08 16:09 221 7.8
2016-Dec-08 16:03 221 7.8